W5GMO Weather Reports


Display with metric or nautical units.
time (UTC)temp
F
wind
direction
speed
MPH
gust
MPH
rain 1hr
in
rain 24hr
in
rain mn
in
humidity
%
barometer
mb
20260504231538 75 205 3.0 6.0 0.00 0.00 0.00 33 1009.8
20260504231034 76 312 3.0 4.0 0.00 0.00 0.00 33 1009.9
20260504230530 76 200 5.0 7.0 0.00 0.00 0.00 33 1009.7
20260504230030 76 224 7.0 10.0 0.00 0.00 0.00 33 1009.9
20260504225526 76 300 4.0 6.0 0.00 0.00 0.00 32 1009.8
20260504225023 77 160 6.0 9.0 0.00 0.00 0.00 32 1009.8
20260504224520 76 254 3.0 4.0 0.00 0.00 0.00 32 1009.7
20260504224017 76 240 4.0 6.0 0.00 0.00 0.00 32 1009.9
20260504223514 76 86 6.0 10.0 0.00 0.00 0.00 32 1009.8
20260504223010 76 264 2.0 2.0 0.00 0.00 0.00 32 1009.9
20260504222506 76 167 6.0 7.0 0.00 0.00 0.00 31 1009.8
20260504222004 77 242 5.0 8.0 0.00 0.00 0.00 31 1009.9
20260504221501 77 156 4.0 6.0 0.00 0.00 0.00 30 1009.7
20260504220958 77 326 4.0 7.0 0.00 0.00 0.00 30 1009.9
20260504220454 77 263 7.0 10.0 0.00 0.00 0.00 30 1009.8
20260504215951 77 240 4.0 7.0 0.00 0.00 0.00 30 1009.8
20260504215448 77 66 4.0 7.0 0.00 0.00 0.00 30 1009.8
20260504214944 78 265 5.0 7.0 0.00 0.00 0.00 30 1009.8
20260504214441 78 214 2.0 3.0 0.00 0.00 0.00 30 1009.9
20260504213938 77 239 4.0 7.0 0.00 0.00 0.00 29 1009.8
20260504213434 77 230 5.0 7.0 0.00 0.00 0.00 30 1009.8
20260504212932 77 245 4.0 4.0 0.00 0.00 0.00 30 1009.8
20260504212427 76 163 3.0 6.0 0.00 0.00 0.00 31 1009.8
20260504211925 76 280 3.0 4.0 0.00 0.00 0.00 30 1009.8
20260504211421 77 277 4.0 6.0 0.00 0.00 0.00 29 1009.7
20260504210919 77 185 5.0 7.0 0.00 0.00 0.00 30 1009.6
20260504210415 78 178 6.0 9.0 0.00 0.00 0.00 29 1009.8
20260504205913 79 182 4.0 6.0 0.00 0.00 0.00 28 1009.8
20260504205410 79 250 2.0 2.0 0.00 0.00 0.00 28 1009.8
20260504204908 77 215 3.0 4.0 0.00 0.00 0.00 29 1009.5
20260504204406 78 293 6.0 8.0 0.00 0.00 0.00 28 1009.7
20260504203906 77 225 10.0 11.0 0.00 0.00 0.00 29 1009.9
20260504203402 77 112 5.0 10.0 0.00 0.00 0.00 29 1009.8
20260504202858 77 58 6.0 10.0 0.00 0.00 0.00 29 1010.0
20260504202355 77 212 6.0 10.0 0.00 0.00 0.00 29 1010.1
20260504201851 78 273 8.0 10.0 0.00 0.00 0.00 29 1010.1
20260504201349 78 194 3.0 4.0 0.00 0.00 0.00 28 1010.2
20260504200846 78 225 3.0 4.0 0.00 0.00 0.00 29 1010.3
20260504200343 78 240 4.0 6.0 0.00 0.00 0.00 28 1010.4
20260504195839 77 145 3.0 4.0 0.00 0.00 0.00 29 1010.3
20260504195334 77 129 2.0 3.0 0.00 0.00 0.00 29 1010.3
20260504194832 77 113 4.0 6.0 0.00 0.00 0.00 29 1010.4
20260504194328 78 225 4.0 6.0 0.00 0.00 0.00 28 1010.6
20260504193824 76 257 3.0 4.0 0.00 0.00 0.00 30 1010.8
20260504193322 77 184 6.0 8.0 0.00 0.00 0.00 29 1010.8
20260504192820 76 234 4.0 7.0 0.00 0.00 0.00 29 1010.9
20260504192318 77 177 2.0 4.0 0.00 0.00 0.00 29 1011.0
20260504191816 77 139 5.0 8.0 0.00 0.00 0.00 29 1011.0
20260504191313 77 240 4.0 4.0 0.00 0.00 0.00 29 1011.3
20260504190809 77 273 6.0 8.0 0.00 0.00 0.00 29 1011.3
20260504190305 77 256 1.0 2.0 0.00 0.00 0.00 29 1011.5
20260504185801 76 119 4.0 6.0 0.00 0.00 0.00 30 1011.5
20260504185259 76 195 5.0 9.0 0.00 0.00 0.00 29 1011.5
20260504184755 75 208 4.0 6.0 0.00 0.00 0.00 30 1011.7
20260504184250 76 228 5.0 7.0 0.00 0.00 0.00 30 1011.9
20260504183746 75 184 2.0 3.0 0.00 0.00 0.00 30 1011.7
20260504183243 75 244 2.0 2.0 0.00 0.00 0.00 31 1011.8
20260504182742 76 270 8.0 9.0 0.00 0.00 0.00 30 1012.0
20260504182238 75 167 4.0 6.0 0.00 0.00 0.00 30 1012.1
20260504181736 74 215 4.0 4.0 0.00 0.00 0.00 31 1012.3
20260504181233 75 164 6.0 8.0 0.00 0.00 0.00 30 1012.1
20260504180732 75 253 4.0 8.0 0.00 0.00 0.00 30 1012.0
20260504180231 74 249 4.0 7.0 0.00 0.00 0.00 32 1012.2
20260504175728 74 255 6.0 9.0 0.00 0.00 0.00 31 1012.5
20260504175224 73 222 0.0 1.0 0.00 0.00 0.00 33 1012.6
20260504174723 76 199 6.0 9.0 0.00 0.00 0.00 30 1012.5
20260504174220 75 254 2.0 4.0 0.00 0.00 0.00 31 1012.6
20260504173716 73 95 2.0 3.0 0.00 0.00 0.00 32 1012.5
20260504173213 75 240 6.0 9.0 0.00 0.00 0.00 32 1012.6
20260504172710 74 275 1.0 2.0 0.00 0.00 0.00 32 1012.8
20260504172206 73 302 4.0 4.0 0.00 0.00 0.00 32 1012.8
20260504171703 73 280 4.0 7.0 0.00 0.00 0.00 32 1012.9
20260504171200 73 288 4.0 4.0 0.00 0.00 0.00 32 1013.0
20260504170656 74 250 5.0 6.0 0.00 0.00 0.00 31 1013.1
20260504170154 73 261 3.0 4.0 0.00 0.00 0.00 31 1013.2
20260504160112 71 224 3.0 3.0 0.00 0.00 0.00 32 1013.8
20260504151045 69 139 3.0 3.0 0.00 0.00 0.00 33 1014.2
20260504150542 68 146 1.0 2.0 0.00 0.00 0.00 34 1014.3
20260504141008 66 207 3.0 3.0 0.00 0.00 0.00 37 1014.6
20260504140505 64 258 2.0 2.0 0.00 0.00 0.00 37 1014.5
20260504130429 59 261 2.0 4.0 0.00 0.00 0.00 46 1015.3
20260504110316 54 237 2.0 2.0 0.00 0.00 0.00 53 1015.5
20260504100234 54 222 2.0 2.0 0.00 0.00 0.00 53 1015.3
20260504081628 54 260 2.0 2.0 0.00 0.00 0.00 54 1016.1
20260504081123 54 254 1.0 1.0 0.00 0.00 0.00 54 1016.0
20260504080620 54 264 2.0 2.0 0.00 0.00 0.00 53 1015.6
20260504080117 54 230 1.0 2.0 0.00 0.00 0.00 54 1015.8
20260504050433 52 259 0.0 0.0 0.00 0.00 0.00 56 1016.2
20260504045930 52 258 0.0 0.0 0.00 0.00 0.00 55 1016.0
20260504045426 53 256 0.0 1.0 0.00 0.00 0.00 54 1016.2
20260504044922 54 257 0.0 1.0 0.00 0.00 0.00 51 1016.1
20260504044420 55 243 0.0 0.0 0.00 0.00 0.00 49 1016.2
20260504043917 55 252 1.0 2.0 0.00 0.00 0.00 49 1016.2
20260504043414 55 236 1.0 1.0 0.00 0.00 0.00 48 1016.1
20260504042911 55 236 1.0 1.0 0.00 0.00 0.00 48 1016.3
20260504042408 55 239 1.0 2.0 0.00 0.00 0.00 47 1016.0
20260504041904 55 224 1.0 1.0 0.00 0.00 0.00 46 1016.1
20260504041400 55 246 0.0 0.0 0.00 0.00 0.00 46 1016.0
20260504040856 55 248 1.0 2.0 0.00 0.00 0.00 45 1016.0
20260504040354 55 252 0.0 0.0 0.00 0.00 0.00 45 1016.0
20260504035850 55 243 1.0 2.0 0.00 0.00 0.00 45 1016.0
20260504035348 55 234 0.0 1.0 0.00 0.00 0.00 45 1016.3
20260504034844 55 254 0.0 0.0 0.00 0.00 0.00 44 1016.2
20260504034342 55 242 0.0 0.0 0.00 0.00 0.00 43 1016.4
20260504033838 55 216 1.0 1.0 0.00 0.00 0.00 43 1016.1
20260504033337 56 243 0.0 1.0 0.00 0.00 0.00 42 1016.1
20260504032833 55 249 0.0 1.0 0.00 0.00 0.00 42 1015.9
20260504032330 55 244 2.0 3.0 0.00 0.00 0.00 42 1016.1
20260504031827 55 239 0.0 0.0 0.00 0.00 0.00 44 1015.9
20260504031324 54 218 1.0 1.0 0.00 0.00 0.00 44 1015.9
20260504030820 53 254 1.0 1.0 0.00 0.00 0.00 46 1016.0
20260504030318 51 253 0.0 1.0 0.00 0.00 0.00 53 1015.6
20260504025814 51 255 0.0 1.0 0.00 0.00 0.00 56 1015.8
20260504025311 50 256 0.0 0.0 0.00 0.00 0.00 57 1015.8
20260504024808 51 255 0.0 0.0 0.00 0.00 0.00 57 1015.5
20260504024304 51 257 0.0 0.0 0.00 0.00 0.00 56 1015.8
20260504023801 51 257 0.0 0.0 0.00 0.00 0.00 56 1015.6
20260504023257 51 259 0.0 0.0 0.00 0.00 0.00 56 1015.4
20260504022753 51 257 0.0 0.0 0.00 0.00 0.00 55 1015.8
20260504022250 52 257 0.0 0.0 0.00 0.00 0.00 53 1015.4
20260504021747 52 255 0.0 0.0 0.00 0.00 0.00 53 1015.5
20260504021244 52 257 0.0 0.0 0.00 0.00 0.00 52 1015.5
20260504020741 52 257 0.0 0.0 0.00 0.00 0.00 51 1015.4
20260504020237 53 257 0.0 0.0 0.00 0.00 0.00 51 1015.3
20260504015734 53 256 0.0 0.0 0.00 0.00 0.00 50 1015.3
20260504015230 53 255 0.0 0.0 0.00 0.00 0.00 50 1015.3
20260504014726 53 254 0.0 0.0 0.00 0.00 0.00 50 1015.3
20260504014223 53 257 0.0 0.0 0.00 0.00 0.00 49 1015.2
20260504013721 53 261 0.0 0.0 0.00 0.00 0.00 48 1015.2
20260504013218 54 255 0.0 0.0 0.00 0.00 0.00 48 1015.2
20260504012714 54 257 0.0 0.0 0.00 0.00 0.00 47 1015.1
20260504012212 54 259 0.0 0.0 0.00 0.00 0.00 45 1015.2
20260504011709 55 257 0.0 0.0 0.00 0.00 0.00 45 1015.2
20260504011206 55 256 0.0 0.0 0.00 0.00 0.00 44 1015.1
20260504010701 55 257 0.0 0.0 0.00 0.00 0.00 43 1015.2
20260504010157 56 256 0.0 0.0 0.00 0.00 0.00 42 1015.1
20260504005654 57 255 0.0 0.0 0.00 0.00 0.00 41 1015.0
20260504005151 57 259 0.0 0.0 0.00 0.00 0.00 39 1015.0
20260504004649 58 257 0.0 0.0 0.00 0.00 0.00 37 1015.0
20260504004146 59 257 0.0 0.0 0.00 0.00 0.00 35 1014.8
20260504003642 59 252 1.0 2.0 0.00 0.00 0.00 32 1015.0
20260504003139 60 245 1.0 1.0 0.00 0.00 0.00 32 1015.0
20260504002636 60 250 0.0 0.0 0.00 0.00 0.00 31 1014.8
20260504002133 60 252 1.0 1.0 0.00 0.00 0.00 31 1014.9
20260504001631 60 253 1.0 1.0 0.00 0.00 0.00 31 1014.8
20260504001126 60 249 0.0 1.0 0.00 0.00 0.00 31 1014.7
20260504000619 60 253 0.0 0.0 0.00 0.00 0.00 30 1014.6
20260504000116 61 249 1.0 1.0 0.00 0.00 0.00 30 1014.5
20260503235614 61 265 2.0 3.0 0.00 0.00 0.00 29 1014.6
20260503235111 62 260 1.0 1.0 0.00 0.00 0.00 29 1014.6
20260503234609 62 254 0.0 1.0 0.00 0.00 0.00 28 1014.4
20260503234106 63 267 0.0 1.0 0.00 0.00 0.00 27 1014.4
20260503233603 63 276 0.0 1.0 0.00 0.00 0.00 27 1014.3
20260503233058 64 254 1.0 1.0 0.00 0.00 0.00 27 1014.3
20260503232555 64 251 1.0 1.0 0.00 0.00 0.00 26 1014.3
20260503232053 64 259 1.0 1.0 0.00 0.00 0.00 26 1014.2